Lid_Strength_Index
2 7 8 9 13 14 15 12 9 9 8 7 6 6 7 7 8 11 2 1 1 1 -0 -0 -1 -1 -1 -1 -1 -1 -1 -1 -1 -1 -1 -1 -1 -1 -1 -1 -1 -1 -1 -1 -2 -1 -1 -1 -1
5 7 9 11 15 18 16 11 10 9 7 6 6 6 7 8 4 5 3 1 0 0 -0 -0 -1 -1 -1 -1 -1 -1 -1 -1 -1 -1 -1 -1 -1 -1 -1 -1 -2 -2 -2 -2 -2 -1 -1 -1 -1
5 7 12 14 16 16 15 11 9 8 7 7 6 5 6 7 4 4 2 1 0 0 -0 -0 -1 -1 -1 -1 -1 -1 -1 -1 -1 -1 -1 -1 -1 -1 -1 -2 -2 -2 -2 -2 -2 -2 -1 -1 -1
8 10 12 15 16 13 11 10 9 9 7 6 5 7 4 3 3 2 1 1 1 0 -0 -0 -1 -1 -1 -1 -1 -1 -1 -1 -1 -1 -1 -1 -1 -1 -1 -2 -2 -2 -2 -2 -2 -2 -2 -2 -2
8 11 16 17 15 13 11 9 9 9 7 6 6 7 6 3 2 1 1 1 1 1 -0 -0 -1 -1 -1 -1 -1 -1 -1 -1 -1 -1 -1 -1 -1 -1 -1 -2 -2 -2 -2 -2 -2 -2 -3 -3 -3
10 11 16 17 15 12 11 9 8 8 6 6 6 7 6 2 2 2 1 1 0 1 0 -0 -1 -1 -1 -1 -1 -1 -1 -1 -1 -1 -1 -1 -1 -1 -1 -2 -2 -2 -2 -2 -2 -3 -3 -3 -3
12 13 14 15 14 13 11 8 9 8 7 6 5 8 6 4 2 1 1 1 0 0 0 0 -0 -0 -1 -1 -1 -1 -1 -1 -1 -1 -1 -1 -1 -1 -1 -2 -2 -2 -2 -2 -2 -3 -3 -3 -3
11 12 14 13 13 14 10 9 9 7 6 4 3 8 8 4 2 1 1 1 1 1 0 0 0 -0 -0 -0 -1 -1 -1 -1 -1 -1 -1 -1 -1 -1 -1 -1 -2 -2 -2 -2 -2 -2 -3 -3 -3
10 15 15 14 12 12 9 10 7 6 5 5 4 5 4 3 2 2 2 2 2 1 1 0 0 -0 -0 -0 -0 -1 -1 -1 -1 -1 -1 -1 0 -0 -1 -1 -2 -2 -2 -2 -2 -2 -2 -2 -3
12 15 14 11 10 10 9 9 9 7 6 6 5 4 3 2 3 4 4 4 3 2 1 1 0 0 -0 -0 -0 -0 -0 -0 -0 -0 -0 -0 1 0 -0 -1 -2 -2 -2 -2 -2 -2 -2 -2 0
12 14 11 9 9 9 9 10 9 8 9 7 6 5 4 4 4 4 3 3 3 2 1 1 0 0 0 0 0 0 -0 -0 -0 -0 0 0 0 0 0 1 0 0 -1 0 -0 -0 -0 0 0
12 10 9 9 8 9 10 9 10 9 9 6 5 6 8 8 4 4 4 4 3 2 2 1 0 0 0 0 0 0 0 0 0 -0 0 0 1 0 0 0 0 0 0 0 0 0 0 0 0
11 9 8 7 7 9 9 10 10 8 7 7 6 5 7 8 9 7 4 3 2 3 2 1 1 1 0 0 0 0 0 0 0 0 -0 0 0 0 0 0 0 0 0 0 0 0 0 0 1
9 8 8 7 8 7 10 11 11 9 7 7 7 7 8 8 7 7 7 5 4 2 2 1 1 1 1 1 0 0 0 0 0 0 0 0 1 0 1 0 0 0 0 0 0 0 0 0 1
7 10 9 8 8 9 9 12 11 9 9 9 9 8 8 7 6 6 7 5 4 2 2 2 1 1 2 1 1 1 0 0 1 1 1 0 0 1 0 0 0 0 0 0 1 1 0 1 1
11 12 12 9 8 8 8 12 10 9 9 9 9 8 8 7 7 7 6 6 4 2 2 2 1 1 2 1 1 1 1 0 0 0 1 -0 -0 1 1 0 1 0 0 1 1 1 1 1 2
13 14 13 11 8 8 9 11 9 8 9 9 9 8 8 8 8 7 6 5 2 2 2 2 2 2 2 2 0 0 2 2 1 1 1 0 -0 -0 1 0 0 1 1 1 1 2 2 2 3
14 14 12 12 9 10 10 11 9 8 8 9 9 9 8 8 7 6 6 4 3 3 2 2 3 2 1 1 1 1 1 3 2 1 1 0 0 0 0 0 1 0 1 1 2 2 3 3 2
11 12 12 11 9 10 11 11 9 8 9 9 8 8 8 7 6 5 4 2 3 3 3 3 2 1 1 2 2 2 2 2 1 0 0 -0 0 1 1 0 1 1 1 1 1 2 2 3 3
10 11 12 11 9 11 11 11 9 8 9 9 8 8 7 7 6 5 4 4 5 5 5 5 4 3 2 1 1 2 2 1 1 1 1 1 1 1 2 2 1 1 2 2 2 3 3 3 3
10 11 11 11 10 10 11 13 11 9 9 8 8 7 7 7 7 6 5 5 4 3 3 3 4 4 3 3 3 3 3 2 2 1 1 1 1 -0 1 1 1 2 2 2 2 2 3 3 2
12 10 10 10 12 16 12 17 13 11 10 9 9 8 7 7 6 6 5 5 4 4 3 3 2 3 3 2 2 3 3 4 2 2 1 1 1 1 1 0 0 1 1 1 1 1 1 2 3
11 9 10 11 13 15 15 17 14 12 11 10 9 8 8 7 6 6 6 4 5 4 3 3 3 3 2 2 2 3 3 2 2 2 2 2 2 2 1 0 0 1 0 1 1 1 2 4 5
8 10 12 13 15 18 15 15 15 13 12 10 8 8 8 7 7 6 5 4 3 4 3 3 3 3 2 2 2 2 3 3 3 3 2 2 1 1 2 1 2 1 1 1 1 4 4 5 4
11 15 18 18 18 18 13 15 14 11 9 8 8 8 8 7 6 5 5 5 5 5 5 4 4 3 3 2 2 2 2 2 3 3 2 3 3 2 1 1 1 1 1 1 3 4 4 4 4
13 14 17 20 19 17 12 15 13 8 7 7 7 7 7 7 6 7 6 5 5 5 4 4 4 3 4 3 3 2 3 3 3 3 3 3 2 2 1 1 1 1 2 2 2 3 2 2 3
11 14 12 15 15 17 15 12 10 8 8 7 7 7 8 7 7 7 7 7 6 5 5 5 5 4 4 3 3 3 3 3 3 3 3 2 2 1 1 1 1 1 1 1 1 2 2 2 3
9 8 14 15 20 21 16 15 14 12 10 9 8 9 9 9 8 8 8 8 7 6 6 5 5 5 4 4 3 3 2 2 3 3 2 2 2 2 2 1 1 1 1 1 3 3 2 3 3
12 12 12 12 15 20 21 17 10 11 9 9 8 8 8 8 8 8 8 7 7 6 6 6 6 5 5 4 5 4 4 3 2 3 2 3 2 2 3 2 2 1 1 1 1 3 3 3 3
10 12 13 17 18 16 17 17 9 9 8 8 8 7 7 7 8 9 8 7 7 6 6 5 6 6 6 5 5 5 4 3 4 3 3 3 3 3 3 2 2 2 1 2 1 2 1 3 3